TimeEST,TemperatureF,Dew PointF,Humidity,Sea Level PressureIn,VisibilityMPH,Wind Direction,Wind SpeedMPH,Gust SpeedMPH,PrecipitationIn,Events,Conditions,WindDirDegrees,DateUTC
12:15 AM,40.1,35.1,82,30.03,1.8,Calm,Calm,-,N/A,,Haze,0,2013-02-25 05:15:00
12:35 AM,37.6,32.5,82,30.04,4.0,Calm,Calm,-,N/A,,Haze,0,2013-02-25 05:35:00
12:55 AM,37.9,32.9,82,30.06,4.0,NNE,12.7,-,N/A,,Haze,30,2013-02-25 05:55:00
1:15 AM,40.1,35.1,82,30.07,10.0,NNE,11.5,17.3,N/A,,Clear,30,2013-02-25 06:15:00
1:35 AM,40.1,34.9,82,30.08,10.0,NNE,11.5,19.6,N/A,,Clear,30,2013-02-25 06:35:00
1:55 AM,40.1,34.7,81,30.08,10.0,NNE,10.4,-,N/A,,Clear,30,2013-02-25 06:55:00
2:15 AM,38.8,33.3,80,30.09,10.0,NNE,9.2,-,N/A,,Clear,30,2013-02-25 07:15:00
2:35 AM,37.8,32.0,80,30.09,10.0,NNE,9.2,-,N/A,,Clear,30,2013-02-25 07:35:00
2:55 AM,37.6,31.8,80,30.09,10.0,NNE,9.2,-,N/A,,Clear,20,2013-02-25 07:55:00
3:15 AM,37.6,32.2,81,30.09,10.0,North,5.8,-,N/A,,Clear,10,2013-02-25 08:15:00
3:35 AM,37.6,32.0,80,30.10,10.0,North,9.2,-,N/A,,Scattered Clouds,10,2013-02-25 08:35:00
3:55 AM,37.6,31.3,78,30.11,10.0,North,6.9,-,N/A,,Mostly Cloudy,10,2013-02-25 08:55:00
4:15 AM,37.6,31.1,77,30.10,10.0,NNE,8.1,-,N/A,,Overcast,20,2013-02-25 09:15:00
4:35 AM,37.6,29.8,74,30.11,10.0,North,9.2,-,N/A,,Mostly Cloudy,10,2013-02-25 09:35:00
4:55 AM,37.6,29.3,72,30.12,10.0,North,8.1,-,N/A,,Scattered Clouds,10,2013-02-25 09:55:00
5:15 AM,35.6,27.7,73,30.13,10.0,NNE,6.9,-,N/A,,Clear,20,2013-02-25 10:15:00
5:35 AM,35.1,27.3,73,30.14,10.0,NNE,9.2,-,N/A,,Clear,20,2013-02-25 10:35:00
5:55 AM,35.1,27.3,73,30.13,10.0,North,9.2,-,N/A,,Clear,360,2013-02-25 10:55:00
6:15 AM,34.7,26.8,73,30.14,10.0,NNE,8.1,-,N/A,,Clear,20,2013-02-25 11:15:00
6:35 AM,34.2,25.7,71,30.15,10.0,North,6.9,-,N/A,,Clear,10,2013-02-25 11:35:00
6:55 AM,33.8,25.0,70,30.15,10.0,NNE,6.9,-,N/A,,Clear,20,2013-02-25 11:55:00
7:15 AM,33.8,24.8,70,30.16,10.0,North,4.6,-,N/A,,Clear,10,2013-02-25 12:15:00
7:35 AM,33.8,24.8,70,30.17,10.0,North,4.6,-,N/A,,Clear,10,2013-02-25 12:35:00
7:55 AM,35.1,26.4,71,30.18,10.0,North,4.6,-,N/A,,Clear,360,2013-02-25 12:55:00
8:15 AM,35.1,25.5,68,30.20,10.0,Calm,Calm,-,N/A,,Clear,0,2013-02-25 13:15:00
8:35 AM,37.6,27.7,67,30.20,10.0,ENE,3.5,-,N/A,,Clear,60,2013-02-25 13:35:00
8:55 AM,37.6,26.8,65,30.21,10.0,North,5.8,-,N/A,,Clear,10,2013-02-25 13:55:00
9:15 AM,37.6,25.9,63,30.21,10.0,NNE,8.1,-,N/A,,Clear,30,2013-02-25 14:15:00
9:35 AM,37.6,25.5,62,30.21,10.0,NNE,9.2,-,N/A,,Clear,30,2013-02-25 14:35:00
9:55 AM,38.1,26.2,62,30.20,10.0,North,8.1,-,N/A,,Clear,10,2013-02-25 14:55:00
10:15 AM,40.1,27.7,61,30.21,10.0,NE,6.9,-,N/A,,Clear,40,2013-02-25 15:15:00
10:35 AM,40.1,27.3,60,30.22,10.0,NNE,8.1,-,N/A,,Clear,20,2013-02-25 15:35:00
10:55 AM,40.5,26.8,58,30.23,10.0,North,5.8,-,N/A,,Clear,10,2013-02-25 15:55:00
11:15 AM,40.6,26.1,56,30.21,10.0,NE,5.8,-,N/A,,Clear,40,2013-02-25 16:15:00
11:35 AM,42.8,26.6,53,30.20,10.0,NNE,9.2,-,N/A,,Clear,20,2013-02-25 16:35:00
11:55 AM,42.8,25.9,51,30.20,10.0,North,6.9,-,N/A,,Clear,10,2013-02-25 16:55:00
12:15 PM,42.8,24.4,48,30.21,10.0,NE,5.8,-,N/A,,Clear,40,2013-02-25 17:15:00
12:35 PM,42.8,24.4,48,30.21,10.0,NNE,4.6,-,N/A,,Clear,20,2013-02-25 17:35:00
12:55 PM,42.8,23.7,47,30.18,10.0,NNE,6.9,-,N/A,,Clear,30,2013-02-25 17:55:00
1:15 PM,42.8,23.4,46,30.18,10.0,NNE,3.5,-,N/A,,Clear,20,2013-02-25 18:15:00
1:35 PM,43.7,24.3,46,30.18,10.0,NNE,5.8,-,N/A,,Clear,20,2013-02-25 18:35:00
1:55 PM,43.9,23.5,45,30.17,10.0,NNE,6.9,-,N/A,,Clear,30,2013-02-25 18:55:00
2:15 PM,43.9,23.0,44,30.19,10.0,ENE,4.6,-,N/A,,Clear,70,2013-02-25 19:15:00
2:35 PM,43.9,23.9,45,30.18,10.0,NE,3.5,-,N/A,,Clear,40,2013-02-25 19:35:00
2:55 PM,43.9,24.1,46,30.17,10.0,North,5.8,-,N/A,,Clear,10,2013-02-25 19:55:00
3:15 PM,43.9,23.5,45,30.17,10.0,NNE,6.9,-,N/A,,Clear,30,2013-02-25 20:15:00
3:35 PM,43.3,23.5,46,30.17,10.0,NE,6.9,-,N/A,,Clear,40,2013-02-25 20:35:00
3:55 PM,42.8,23.0,46,30.17,10.0,NE,8.1,-,N/A,,Clear,50,2013-02-25 20:55:00
4:15 PM,42.8,23.4,46,30.17,10.0,NE,6.9,-,N/A,,Clear,40,2013-02-25 21:15:00
4:35 PM,42.8,23.7,47,30.16,10.0,NE,5.8,-,N/A,,Clear,40,2013-02-25 21:35:00
4:55 PM,42.8,25.5,51,30.16,10.0,NNE,5.8,-,N/A,,Clear,30,2013-02-25 21:55:00
5:15 PM,42.8,26.4,52,30.16,10.0,NE,5.8,-,N/A,,Clear,40,2013-02-25 22:15:00
5:35 PM,42.8,27.1,54,30.17,10.0,NNE,4.6,-,N/A,,Clear,30,2013-02-25 22:35:00
5:55 PM,41.4,27.7,58,30.17,10.0,NE,4.6,-,N/A,,Clear,50,2013-02-25 22:55:00
6:15 PM,40.1,28.9,64,30.19,10.0,NNE,3.5,-,N/A,,Clear,30,2013-02-25 23:15:00
6:35 PM,40.1,28.4,63,30.19,10.0,NE,3.5,-,N/A,,Clear,50,2013-02-25 23:35:00
6:55 PM,40.1,29.3,65,30.18,10.0,NE,5.8,-,N/A,,Clear,40,2013-02-25 23:55:00
7:15 PM,40.1,30.0,67,30.18,10.0,NE,4.6,-,N/A,,Clear,50,2013-02-26 00:15:00
7:35 PM,40.1,30.7,69,30.19,10.0,NE,3.5,-,N/A,,Clear,40,2013-02-26 00:35:00
7:55 PM,40.1,30.9,70,30.20,10.0,NE,4.6,-,N/A,,Clear,40,2013-02-26 00:55:00
8:15 PM,39.4,30.6,71,30.20,10.0,NE,4.6,-,N/A,,Clear,40,2013-02-26 01:15:00
8:35 PM,38.1,30.0,73,30.20,10.0,ENE,5.8,-,N/A,,Clear,60,2013-02-26 01:35:00
8:55 PM,37.6,30.2,75,30.20,10.0,ENE,6.9,-,N/A,,Clear,70,2013-02-26 01:55:00
9:15 PM,37.6,30.2,75,30.20,10.0,ENE,5.8,-,N/A,,Clear,70,2013-02-26 02:15:00
9:35 PM,37.6,30.7,76,30.19,10.0,ENE,8.1,-,N/A,,Clear,70,2013-02-26 02:35:00
9:55 PM,37.6,31.1,77,30.19,10.0,ENE,8.1,-,N/A,,Clear,70,2013-02-26 02:55:00
10:15 PM,37.6,30.9,77,30.20,10.0,ENE,5.8,-,N/A,,Clear,60,2013-02-26 03:15:00
10:55 PM,37.6,31.1,77,30.17,10.0,NE,4.6,-,N/A,,Clear,50,2013-02-26 03:55:00
11:15 PM,37.6,31.3,78,30.16,10.0,NE,5.8,-,N/A,,Clear,50,2013-02-26 04:15:00
11:35 PM,37.6,31.5,79,30.15,10.0,NE,5.8,-,N/A,,Clear,40,2013-02-26 04:35:00
11:55 PM,37.6,31.8,80,30.14,10.0,ENE,5.8,-,N/A,,Clear,60,2013-02-26 04:55:00